PACCTY-2 Weather Reports


Display with metric or nautical units.
time (UTC)temp
F
wind
direction
speed
MPH
gust
MPH
rain 1hr
in
rain 24hr
in
rain mn
in
humidity
%
barometer
mb
20260903081214 60 180 11.0 21.0 0.00 0.00 0.00 92 1007.6
20260903080712 60 180 11.0 21.0 0.00 0.00 0.00 92 1007.6
20260903080211 60 180 11.0 26.0 0.00 0.00 0.00 92 1007.6
20260903075710 60 170 17.0 26.0 0.00 0.00 0.00 92 1007.6
20260903075209 60 193 9.0 26.0 0.00 0.00 0.00 92 1007.6
20260903074708 60 172 7.0 22.0 0.00 0.00 0.00 92 1007.6
20260903073707 60 172 11.0 24.0 0.00 0.00 0.00 92 1007.7
20260903073206 59 184 15.0 24.0 0.00 0.00 0.00 92 1007.7
20260903071702 59 172 13.0 23.0 0.00 0.00 0.00 92 1007.7
20260903071202 60 183 15.0 25.0 0.00 0.00 0.00 92 1007.6
20260903070700 60 184 18.0 25.0 0.00 0.00 0.00 92 1007.6
20260903070200 60 200 16.0 25.0 0.00 0.00 0.00 92 1007.6
20260903065158 60 184 14.0 23.0 0.00 0.00 0.00 92 1007.7
20260903064656 60 176 15.0 23.0 0.00 0.00 0.00 92 1007.6
20260903063748 59 165 7.0 16.0 0.00 0.00 0.00 92 1007.6
20260903063657 59 165 7.0 16.0 0.00 0.00 0.00 92 1007.6
20260903063154 60 169 6.0 16.0 0.00 0.00 0.00 92 1007.7
20260903062152 59 177 8.0 19.0 0.00 0.00 0.00 92 1007.8
20260903061651 59 170 11.0 19.0 0.00 0.00 0.00 92 1007.7
20260903061149 59 187 9.0 16.0 0.00 0.00 0.00 92 1007.8
20260903060147 59 162 6.0 18.0 0.00 0.00 0.00 92 1007.9
20260903055647 59 175 11.0 18.0 0.00 0.00 0.00 92 1007.9
20260903055145 59 182 6.0 11.0 0.00 0.00 0.00 92 1008.0
20260903054644 59 177 5.0 11.0 0.00 0.00 0.00 92 1008.1
20260903054143 58 166 6.0 12.0 0.00 0.00 0.00 92 1008.1
20260903053642 58 163 5.0 12.0 0.00 0.00 0.00 92 1008.1
20260903052139 59 170 5.0 9.0 0.00 0.00 0.00 92 1008.0
20260903051638 58 155 5.0 11.0 0.00 0.00 0.00 92 1008.0
20260903050636 58 158 4.0 11.0 0.00 0.00 0.00 92 1008.0
20260903050135 58 166 4.0 7.0 0.00 0.00 0.00 92 1007.9
20260903045635 58 175 2.0 11.0 0.00 0.00 0.00 92 1007.9
20260903044632 59 175 4.0 11.0 0.00 0.00 0.00 92 1007.9
20260903043630 59 165 4.0 10.0 0.00 0.00 0.00 92 1007.9
20260903043129 59 177 6.0 10.0 0.00 0.00 0.00 92 1007.9
20260903042127 59 158 4.0 17.0 0.00 0.00 0.00 92 1007.9
20260903041626 59 168 4.0 17.0 0.00 0.00 0.00 92 1007.8
20260903040624 59 162 7.0 16.0 0.00 0.00 0.00 91 1007.7
20260903040123 59 183 6.0 12.0 0.00 0.00 0.00 91 1007.7
20260903035121 60 182 4.0 12.0 0.00 0.00 0.00 91 1007.5
20260903033618 60 172 4.0 20.0 0.00 0.00 0.00 91 1007.5
20260903032616 60 175 10.0 23.0 0.00 0.00 0.00 91 1007.3
20260903032115 60 182 12.0 23.0 0.00 0.00 0.00 91 1007.3
20260903031615 61 169 15.0 23.0 0.00 0.00 0.00 91 1007.3
20260903031113 60 187 15.0 21.0 0.00 0.00 0.00 90 1007.3
20260903030111 61 180 13.0 21.0 0.00 0.00 0.00 90 1007.3
20260903025610 61 176 11.0 19.0 0.00 0.00 0.00 90 1007.4
20260903025109 61 189 10.0 19.0 0.00 0.00 0.00 90 1007.4
20260903024609 61 186 12.0 19.0 0.00 0.00 0.00 90 1007.2
20260903024108 61 166 10.0 17.0 0.00 0.00 0.00 90 1007.2
20260903023607 61 177 10.0 20.0 0.00 0.00 0.00 89 1007.2
20260903023107 61 172 12.0 20.0 0.00 0.00 0.00 89 1007.2
20260903022604 61 179 7.0 20.0 0.00 0.00 0.00 89 1007.3
20260903022103 61 187 8.0 20.0 0.00 0.00 0.00 89 1007.3
20260903021602 61 184 7.0 23.0 0.00 0.00 0.00 89 1007.2
20260903021101 61 183 3.0 23.0 0.00 0.00 0.00 88 1007.1
20260903020600 62 180 6.0 23.0 0.00 0.00 0.00 88 1007.1
20260903020059 62 180 10.0 22.0 0.00 0.00 0.00 88 1007.1
20260903015558 62 183 14.0 22.0 0.00 0.00 0.00 88 1007.0
20260903014556 62 187 13.0 22.0 0.00 0.00 0.00 88 1007.0
20260903013053 63 163 14.0 20.0 0.00 0.00 0.00 88 1007.0
20260903012552 63 182 14.0 23.0 0.00 0.00 0.00 88 1007.1
20260903012052 63 183 13.0 23.0 0.00 0.00 0.00 88 1007.1
20260903010047 63 184 12.0 20.0 0.00 0.00 0.00 88 1007.0
20260903005546 63 189 13.0 20.0 0.00 0.00 0.00 88 1006.9
20260903004544 63 182 12.0 24.0 0.00 0.00 0.00 88 1006.9
20260903004043 64 198 15.0 24.0 0.00 0.00 0.00 88 1006.9
20260903003542 64 203 15.0 24.0 0.00 0.00 0.00 88 1006.8
20260903003129 64 179 15.0 22.0 0.00 0.00 0.00 89 1006.8
20260903003042 64 179 15.0 22.0 0.00 0.00 0.00 89 1006.8
20260903002540 64 184 14.0 22.0 0.00 0.00 0.00 89 1006.7
20260903002039 64 200 13.0 20.0 0.00 0.00 0.00 90 1006.7
20260903001037 65 194 9.0 17.0 0.00 0.00 0.00 91 1006.7
20260903000536 65 175 11.0 16.0 0.00 0.00 0.00 91 1006.6
20260903000035 65 196 10.0 16.0 0.00 0.00 0.00 1006.6
20260902235534 65 183 9.0 16.0 0.00 0.00 0.00 92 1006.5
20260902235033 65 173 10.0 15.0 0.00 0.00 0.00 92 1006.5
20260902233029 65 166 9.0 16.0 0.00 0.00 0.00 93 1006.3
20260902232528 65 175 10.0 16.0 0.00 0.00 0.00 93 1006.3
20260902232029 64 170 10.0 16.0 0.00 0.00 0.00 93 1006.2
20260902231025 64 203 11.0 18.0 0.00 0.00 0.00 93 1006.2
20260902230524 64 204 13.0 18.0 0.00 0.00 0.00 93 1006.2
20260902225522 64 189 11.0 17.0 0.00 0.00 0.00 93 1006.0
20260902224520 64 189 12.0 17.0 0.00 0.00 0.00 1005.9
20260902223518 64 172 12.0 17.0 0.00 0.00 0.00 94 1005.8
20260902223017 63 172 10.0 17.0 0.00 0.00 0.00 94 1005.9
20260902222516 62 183 10.0 21.0 0.00 0.00 0.00 94 1005.8
20260902221514 62 193 13.0 21.0 0.00 0.00 0.00 94 1005.8
20260902221013 62 190 14.0 20.0 0.00 0.00 0.00 94 1005.8
20260902220512 61 193 14.0 20.0 0.00 0.00 0.00 94 1005.7
20260902220011 61 177 12.0 24.0 0.00 0.00 0.00 95 1005.7
20260902215510 61 180 14.0 24.0 0.00 0.00 0.00 95 1005.6
20260902214007 61 183 16.0 27.0 0.00 0.00 0.00 95 1005.5
20260902213506 60 198 17.0 27.0 0.00 0.00 0.00 1005.5
20260902213007 60 182 17.0 23.0 0.00 0.00 0.00 94 1005.4
20260902212504 60 182 15.0 23.0 0.00 0.00 0.00 94 1005.3
20260902212003 60 163 16.0 22.0 0.00 0.00 0.00 94 1005.3
20260902211502 60 184 13.0 21.0 0.00 0.00 0.00 94 1005.2
20260902211001 60 187 14.0 20.0 0.00 0.00 0.00 94 1005.2
20260902210500 60 183 13.0 24.0 0.00 0.00 0.00 94 1005.1
20260902205959 60 177 14.0 24.0 0.00 0.00 0.00 94 1005.0
20260902205458 60 179 13.0 24.0 0.00 0.00 0.00 94 1005.0
20260902204957 60 165 17.0 22.0 0.00 0.00 0.00 95 1005.0
20260902203955 59 187 14.0 28.0 0.00 0.00 0.00 94 1004.9
20260902203454 59 187 18.0 28.0 0.00 0.00 0.00 94 1004.9
20260902202453 60 172 18.0 34.0 0.00 0.00 0.00 94 1004.7
20260902201951 60 182 19.0 34.0 0.00 0.00 0.00 94 1004.6
20260902201450 60 173 21.0 48.0 0.00 0.00 0.00 94 1004.4
20260902200949 60 172 21.0 48.0 0.00 0.00 0.00 94 1004.3
20260902200448 60 197 23.0 48.0 0.00 0.00 0.00 94 1004.1
20260902195947 60 173 24.0 44.0 0.00 0.00 0.00 94 1004.1
20260902195446 60 168 23.0 44.0 0.00 0.00 0.00 94 1004.2
20260902194444 60 177 22.0 41.0 0.00 0.00 0.00 94 1004.2
20260902193943 60 184 17.0 38.0 0.00 0.00 0.00 94 1004.3
20260902193442 60 182 20.0 38.0 0.00 0.00 0.00 94 1004.1
20260902192941 60 161 21.0 28.0 0.00 0.00 0.00 93 1004.2
20260902192440 60 170 16.0 24.0 0.00 0.00 0.00 93 1004.1
20260902191940 60 184 14.0 24.0 0.00 0.00 0.00 93 1004.1
20260902190937 60 162 11.0 24.0 0.00 0.00 0.00 93 1003.9
20260902185935 60 155 8.0 17.0 0.00 0.00 0.00 93 1003.8
20260902185434 60 141 5.0 17.0 0.00 0.00 0.00 93 1003.8
20260902184432 60 151 7.0 12.0 0.00 0.00 0.00 93 1003.7
20260902183931 59 165 6.0 12.0 0.00 0.00 0.00 93 1003.7
20260902183430 59 163 5.0 17.0 0.00 0.00 0.00 93 1003.6
20260902182929 59 126 9.0 17.0 0.00 0.00 0.00 93 1003.7
20260902182428 59 148 5.0 17.0 0.00 0.00 0.00 93 1003.6
20260902181927 59 138 8.0 15.0 0.00 0.00 0.00 93 1003.6
20260902181426 59 144 7.0 15.0 0.00 0.00 0.00 93 1003.5
20260902180925 59 130 6.0 15.0 0.00 0.00 0.00 93 1003.5
20260902175923 59 134 6.0 15.0 0.00 0.00 0.00 93 1003.4
20260902175422 59 142 5.0 15.0 0.00 0.00 0.00 93 1003.5
20260902174921 59 133 6.0 17.0 0.00 0.00 0.00 93 1003.5
20260902174420 59 131 6.0 17.0 0.00 0.00 0.00 93 1003.5
20260902173919 59 131 9.0 17.0 0.00 0.00 0.00 93 1003.3
20260902173419 59 133 8.0 13.0 0.00 0.00 0.00 93 1003.4
20260902172917 60 127 6.0 13.0 0.00 0.00 0.00 93 1003.5
20260902172416 60 130 8.0 12.0 0.00 0.00 0.00 93 1003.6
20260902171915 60 145 7.0 12.0 0.00 0.00 0.00 92 1003.6
20260902170412 60 133 7.0 10.0 0.00 0.00 0.00 92 1003.7
20260902164910 60 135 5.0 15.0 0.00 0.00 0.00 92 1003.9
20260902163907 60 133 7.0 11.0 0.00 0.00 0.00 92 1004.0
20260902162906 60 133 7.0 14.0 0.00 0.00 0.00 92 1004.3
20260902161903 59 165 6.0 14.0 0.00 0.00 0.00 92 1004.5
20260902160400 59 148 6.0 11.0 0.00 0.00 0.00 92 1004.8
20260902154857 59 158 4.0 9.0 0.00 0.00 0.00 91 1005.1
20260902154356 60 148 4.0 9.0 0.00 0.00 0.00 91 1005.1
20260902153855 60 158 5.0 8.0 0.00 0.00 0.00 91 1005.1
20260902153354 60 131 4.0 8.0 0.00 0.00 0.00 91 1005.1
20260902152853 60 137 6.0 9.0 0.00 0.00 0.00 91 1005.1
20260902151851 60 138 4.0 9.0 0.00 0.00 0.00 91 1005.1
20260902151350 60 130 5.0 9.0 0.00 0.00 0.00 91 1005.1
20260902150348 60 180 5.0 9.0 0.00 0.00 0.00 90 1005.2
20260902145847 60 140 5.0 13.0 0.00 0.00 0.00 90 1005.3
20260902145346 60 145 4.0 13.0 0.00 0.00 0.00 90 1005.3
20260902144845 60 165 4.0 13.0 0.00 0.00 0.00 90 1005.3
20260902144344 60 138 5.0 11.0 0.00 0.00 0.00 90 1005.3
20260902143843 60 133 6.0 11.0 0.00 0.00 0.00 90 1005.2
20260902143342 60 140 5.0 15.0 0.00 0.00 0.00 90 1005.3
20260902142841 60 145 5.0 15.0 0.00 0.00 0.00 90 1005.3
20260902142341 60 155 5.0 15.0 0.00 0.00 0.00 90 1005.3
20260902141839 60 152 9.0 15.0 0.00 0.00 0.00 90 1005.4
20260902141338 60 137 5.0 15.0 0.00 0.00 0.00 90 1005.4
20260902140337 60 144 9.0 12.0 0.00 0.00 0.00 90 1005.5
20260902135838 60 133 9.0 10.0 0.00 0.00 0.00 89 1005.6
20260902134332 60 141 3.0 10.0 0.00 0.00 0.00 89 1005.8
20260902133831 60 140 6.0 14.0 0.00 0.00 0.00 88 1005.8
20260902133330 60 134 7.0 14.0 0.00 0.00 0.00 88 1005.8
20260902132328 60 156 7.0 12.0 0.00 0.00 0.00 87 1006.0
20260902130327 61 161 5.0 17.0 0.00 0.00 0.00 85 1006.1
20260902125823 62 180 7.0 14.0 0.00 0.00 0.00 85 1006.2
20260902125322 62 170 6.0 14.0 0.00 0.00 0.00 85 1006.3
20260902124821 62 184 5.0 14.0 0.00 0.00 0.00 84 1006.2
20260902124320 62 144 7.0 14.0 0.00 0.00 0.00 85 1006.1
20260902123318 62 130 6.0 11.0 0.00 0.00 0.00 85 1006.1
20260902122817 61 154 4.0 9.0 0.00 0.00 0.00 85 1006.2
20260902121815 61 177 6.0 15.0 0.00 0.00 0.00 85 1006.4
20260902121314 62 152 4.0 15.0 0.00 0.00 0.00 85 1006.5
20260902120813 61 137 7.0 15.0 0.00 0.00 0.00 85 1006.5
20260902120312 62 135 6.0 15.0 0.00 0.00 0.00 85 1006.5
20260902115811 62 169 7.0 15.0 0.00 0.00 0.00 85 1006.6
20260902115311 61 142 7.0 14.0 0.00 0.00 0.00 1006.8
20260902114809 61 151 8.0 13.0 0.00 0.00 0.00 1007.0
20260902113807 61 130 5.0 13.0 0.00 0.00 0.00 1007.0
20260902113306 62 138 8.0 11.0 0.00 0.00 0.00 1007.1
20260902111804 62 152 6.0 15.0 0.00 0.00 0.00 86 1007.3
20260902111302 62 152 9.0 16.0 0.00 0.00 0.00 86 1007.4
20260902110801 62 134 6.0 16.0 0.00 0.00 0.00 86 1007.5
20260902110300 62 138 5.0 16.0 0.00 0.00 0.00 86 1007.6
20260902105800 62 148 7.0 15.0 0.00 0.00 0.00 86 1007.6
20260902105258 61 163 4.0 15.0 0.00 0.00 0.00 86 1007.8
20260902104757 61 169 7.0 15.0 0.00 0.00 0.00 87 1007.9
20260902104256 61 175 9.0 15.0 0.00 0.00 0.00 87 1007.9
20260902103254 61 189 7.0 15.0 0.00 0.00 0.00 87 1008.0
20260902102753 61 173 7.0 15.0 0.00 0.00 0.00 87 1008.0
20260902102252 61 177 7.0 15.0 0.00 0.00 0.00 87 1008.1
20260902101250 61 158 7.0 12.0 0.00 0.00 0.00 87 1008.2
20260902100749 61 166 6.0 12.0 0.00 0.00 0.00 88 1008.2
20260902095246 61 177 7.0 16.0 0.00 0.00 0.00 88 1008.6
20260902094745 61 175 8.0 16.0 0.00 0.00 0.00 88 1008.6
20260902093242 61 161 9.0 15.0 0.00 0.00 0.00 89 1008.7
20260902091739 61 177 12.0 23.0 0.00 0.00 0.00 89 1008.8
20260902091238 61 175 14.0 23.0 0.00 0.00 0.00 89 1008.9
20260902090236 61 203 15.0 21.0 0.00 0.00 0.00 89 1008.9
20260902085736 61 189 14.0 20.0 0.00 0.00 0.00 89 1009.0
20260902085234 61 177 15.0 20.0 0.00 0.00 0.00 89 1009.0
20260902084733 61 170 12.0 20.0 0.00 0.00 0.00 89 1009.1
20260902084232 61 173 12.0 18.0 0.00 0.00 0.00 89 1009.2
20260902083230 61 182 10.0 16.0 0.00 0.00 0.00 89 1009.2
20260902082729 61 177 8.0 16.0 0.00 0.00 0.00 89 1009.3
20260902082228 61 191 8.0 16.0 0.00 0.00 0.00 89 1009.3